(224401) = 2005 UP279 = 2008 FA81

Discovered at Kitt Peak on 2005-10-24 by Spacewatch.

Orbit

Orbit type: Main Belt

Note: WebGL enabled browser required.

epoch2024-03-31.0
epoch JD2460400.5
perihelion date2025-08-20.34066
perihelion JD2460907.84066
argument of perihelion (°)96.00353
ascending node (°)199.26702
inclination (°)2.54876
eccentricity0.2521433
perihelion distance (AU)1.9281346
Tisserand w.r.t. Jupiter3.4
ΔV w.r.t. Earth (km/sec)8.8
semimajor axis (AU)2.5782139
mean anomaly (°)239.21164
mean daily motion (°/day)0.23808140
aphelion distance (AU)3.228
period (years)4.14
P-vector [x]0.42656844
P-vector [y]-0.84642083
P-vector [z]-0.31876504
Q-vector [x]0.90433625
Q-vector [y]0.39342721
Q-vector [z]0.16550220
absolute magnitude17.64
phase slope0.15
uncertainty0
referenceMPEC 2024-C181
observations used200
oppositions11
arc length (days)7267
first opposition used2004
last opposition used2024
residual rms (arc-secs)0.85
perturbers coarse indicatorM-v
perturbers precise indicator003Ek
first observation date used2004-03-23.0
last observation date used2024-02-14.0
computer nameMPCLINUX
JD of orbit computation2456612.853267
perihelion JD uncertainty (days)1.5605E-04
argument of perihelion uncertainty (°)1.0662E-04
ascending node uncertainty (°)9.6446E-05
inclination uncertainty (°)2.0544E-05
eccentricity uncertainty 4.7527E-08
perihelion distance uncertainty (AU)1.1206E-07
Minimum Orbit Intersection Distances (in AU)
for orbit epoch: 2460400.5, reference: E2024-CI1
Mercury1.48461
Venus1.20397
Earth0.91401
Mars0.51761
Jupiter1.98617
Saturn5.84856
Uranus15.3659
Neptune26.8601

Observations

208 total observations over interval: 2004 03 23.35229 – 2024 02 14.384668
These data are available for download (format description).

Date (UT) J2000 RA J2000 Dec Magn Location Ref
2004 03 23.35229 14 23 10.60 -13 52 48.4 21.8 V 291 – LPL/Spacewatch II MPS 254020
2004 03 23.37593 14 23 10.07 -13 52 44.2 21.8 V 291 – LPL/Spacewatch II MPS 254020
2004 03 23.39956 14 23 09.53 -13 52 40.0 21.6 V 291 – LPL/Spacewatch II MPS 254020
2004 05 13.17051 13 44 41.66 -09 18 55.3 21.2 V 691 – Steward Observatory, Kitt Peak-Spacewatch MPS 254020
2004 05 13.20515 13 44 40.07 -09 18 45.1 21.3 V 691 – Steward Observatory, Kitt Peak-Spacewatch MPS 254020
2004 05 13.23296 13 44 38.81 -09 18 36.4 21.1 V 691 – Steward Observatory, Kitt Peak-Spacewatch MPS 254020
2005 10 01.39307 03 15 18.64 +17 00 42.0 21.2 V G96 – Mt. Lemmon Survey MPS 254020
2005 10 01.39985 03 15 18.46 +17 00 41.3 21.5 V G96 – Mt. Lemmon Survey MPS 254020
2005 10 01.40661 03 15 18.28 +17 00 39.9 21.3 V G96 – Mt. Lemmon Survey MPS 254020
2005 10 01.41338 03 15 18.10 +17 00 38.9 21.4 V G96 – Mt. Lemmon Survey MPS 254020
2005 10 24.26327 02 58 54.05 +15 26 26.9 21.2 V 691 – Steward Observatory, Kitt Peak-Spacewatch MPS 150966
2005 10 24.28055 02 58 53.03 +15 26 22.2 21.3 V 691 – Steward Observatory, Kitt Peak-Spacewatch MPS 150966
2005 10 24.29785 02 58 52.07 +15 26 16.2 21.3 V 691 – Steward Observatory, Kitt Peak-Spacewatch MPS 150966
2005 10 30.23779 02 53 11.02 +14 55 33.4 21.6 V 691 – Steward Observatory, Kitt Peak-Spacewatch MPS 150966
2005 10 30.25508 02 53 09.95 +14 55 28.3 20.9 V 691 – Steward Observatory, Kitt Peak-Spacewatch MPS 150966
2005 10 30.27239 02 53 08.91 +14 55 22.8 21.3 V 691 – Steward Observatory, Kitt Peak-Spacewatch MPS 150966
2008 03 27.30755 13 00 39.88 -07 00 04.4 20.3 V G96 – Mt. Lemmon Survey MPS 245857
2008 03 27.31734 13 00 39.34 -07 00 01.3 20.5 V G96 – Mt. Lemmon Survey MPS 245857
2008 03 27.32711 13 00 38.88 -06 59 57.5 20.7 V G96 – Mt. Lemmon Survey MPS 245857
2008 03 27.33694 13 00 38.37 -06 59 54.1 21.3 V G96 – Mt. Lemmon Survey MPS 245857
2008 04 03.31635 12 54 33.66 -06 14 37.6 20.5 V G96 – Mt. Lemmon Survey MPS 245857
2008 04 03.32413 12 54 33.19 -06 14 34.0 20.2 V G96 – Mt. Lemmon Survey MPS 245857
2008 04 03.33199 12 54 32.76 -06 14 30.6 20.6 V G96 – Mt. Lemmon Survey MPS 245857
2008 04 03.33987 12 54 32.32 -06 14 27.8 21.1 V G96 – Mt. Lemmon Survey MPS 245857
2008 04 11.16930 12 47 29.82 -05 21 15.7 20.7 V 691 – Steward Observatory, Kitt Peak-Spacewatch MPS 254020
2008 04 11.18687 12 47 28.85 -05 21 08.7 20.9 V 691 – Steward Observatory, Kitt Peak-Spacewatch MPS 254020
2008 04 11.20446 12 47 27.86 -05 21 01.5 20.7 V 691 – Steward Observatory, Kitt Peak-Spacewatch MPS 254020
2008 04 24.23547 12 36 39.24 -03 57 00.9 21.4 V G96 – Mt. Lemmon Survey MPS 254020
2008 04 24.24107 12 36 38.98 -03 56 58.5 20.9 V G96 – Mt. Lemmon Survey MPS 254020
2008 04 24.24670 12 36 38.77 -03 56 56.6 22.2 V G96 – Mt. Lemmon Survey MPS 254020
2008 04 24.25223 12 36 38.41 -03 56 54.6 21.4 V G96 – Mt. Lemmon Survey MPS 254020
2009 09 14.46586 02 12 21.55 +13 25 35.0 21.0 V 691 – Steward Observatory, Kitt Peak-Spacewatch MPS 295018
2009 09 14.48355 02 12 21.16 +13 25 32.0 20.9 V 691 – Steward Observatory, Kitt Peak-Spacewatch MPS 295018
2009 09 14.50123 02 12 20.75 +13 25 28.7 21.4 V 691 – Steward Observatory, Kitt Peak-Spacewatch MPS 295018
2009 09 22.44102 02 08 44.17 +12 56 56.1 21.2 V 691 – Steward Observatory, Kitt Peak-Spacewatch MPS 295854
2009 09 22.45869 02 08 43.50 +12 56 51.3 21.1 V 691 – Steward Observatory, Kitt Peak-Spacewatch MPS 295854
2009 09 22.47637 02 08 42.87 +12 56 46.9 21.2 V 691 – Steward Observatory, Kitt Peak-Spacewatch MPS 295854
2009 09 26.41040 02 06 17.48 +12 39 01.6 20.7 V 691 – Steward Observatory, Kitt Peak-Spacewatch MPS 296941
2009 09 26.42803 02 06 16.74 +12 38 56.7 21.2 V 691 – Steward Observatory, Kitt Peak-Spacewatch MPS 296941
2009 09 26.44568 02 06 16.00 +12 38 51.3 20.8 V 691 – Steward Observatory, Kitt Peak-Spacewatch MPS 296941
2009 10 14.30704 01 51 31.60 +10 56 03.8 20.9 V G96 – Mt. Lemmon Survey MPS 298330
2009 10 14.31369 01 51 31.24 +10 56 01.1 20.3 V G96 – Mt. Lemmon Survey MPS 298330
2009 10 14.32065 01 51 30.81 +10 55 58.5 20.6 V G96 – Mt. Lemmon Survey MPS 298330
2009 10 14.32744 01 51 30.42 +10 55 55.9 20.7 V G96 – Mt. Lemmon Survey MPS 298330
2012 03 16.36375 12 03 40.42 -01 53 42.8 20.8 V G96 – Mt. Lemmon Survey MPS 417051
2012 03 16.37125 12 03 40.03 -01 53 39.9 21.0 V G96 – Mt. Lemmon Survey MPS 417051
2012 03 16.37873 12 03 39.60 -01 53 37.6 21.5 V G96 – Mt. Lemmon Survey MPS 417051
2012 03 16.38623 12 03 39.24 -01 53 34.2 21.0 V G96 – Mt. Lemmon Survey MPS 417051
2012 04 18.19994 11 37 14.62 +01 31 10.0 21.5 V G96 – Mt. Lemmon Survey MPS 421691
2012 04 18.20926 11 37 14.30 +01 31 12.7 21.4 V G96 – Mt. Lemmon Survey MPS 421691
2012 04 18.21850 11 37 13.98 +01 31 15.0 21.9 V G96 – Mt. Lemmon Survey MPS 421691
2012 04 18.22762 11 37 13.62 +01 31 17.7 21.7 V G96 – Mt. Lemmon Survey MPS 421691
2013 09 23.36308 00 37 02.62 +05 10 02.3 20.2 V G96 – Mt. Lemmon Survey MPS 478529
2013 09 23.36833 00 37 02.33 +05 10 00.0 20.1 V G96 – Mt. Lemmon Survey MPS 478529
2013 09 23.37367 00 37 02.05 +05 09 57.6 20.4 V G96 – Mt. Lemmon Survey MPS 478529
2013 09 23.37906 00 37 01.74 +05 09 55.6 20.5 V G96 – Mt. Lemmon Survey MPS 478529
2013 09 23.38442 00 37 01.48 +05 09 53.3 20.1 V G96 – Mt. Lemmon Survey MPS 478529
2013 09 24.50738 00 36 03.785 +05 02 02.60 20.1 r F51 – Pan-STARRS 1, Haleakala MPS 478529
2013 09 24.51905 00 36 03.156 +05 01 57.85 20.0 r F51 – Pan-STARRS 1, Haleakala MPS 478529
2013 09 24.54414 00 36 01.812 +05 01 46.93 20.1 i F51 – Pan-STARRS 1, Haleakala MPS 478529
2013 10 01.16669 00 30 18.21 +04 14 30.6 20.1 r I41 – Palomar Mountain--ZTF MPS 479736
2013 10 01.30911 00 30 10.52 +04 13 30.0 20.0 r I41 – Palomar Mountain--ZTF MPS 479736
2013 10 01.46398 00 30 02.16 +04 12 23.3 19.7 r I41 – Palomar Mountain--ZTF MPS 479736
2013 10 04.50324 00 27 26.550 +03 50 47.89 20.5 g F51 – Pan-STARRS 1, Haleakala MPS 481900
2013 10 04.51552 00 27 25.888 +03 50 42.49 20.5 g F51 – Pan-STARRS 1, Haleakala MPS 481900
2013 10 22.21408 00 14 49.14 +02 00 48.5 20.4 V G96 – Mt. Lemmon Survey MPS 483345
2013 10 22.21932 00 14 48.93 +02 00 47.1 20.5 V G96 – Mt. Lemmon Survey MPS 483345
2013 10 22.22454 00 14 48.75 +02 00 45.4 20.3 V G96 – Mt. Lemmon Survey MPS 483345
2013 10 22.22976 00 14 48.59 +02 00 44.0 20.3 V G96 – Mt. Lemmon Survey MPS 483345
2013 10 22.37219 00 14 43.988 +02 00 02.86 20.5 r F51 – Pan-STARRS 1, Haleakala MPS 483345
2013 10 22.39628 00 14 43.123 +01 59 55.09 20.8 i F51 – Pan-STARRS 1, Haleakala MPS 483345
2013 10 22.40930 00 14 42.693 +01 59 51.27 20.7 i F51 – Pan-STARRS 1, Haleakala MPS 483345
2013 10 30.22225 00 11 19.85 +01 26 27.2 20.9 V G96 – Mt. Lemmon Survey MPS 484917
2013 10 30.22904 00 11 19.71 +01 26 26.1 20.4 V G96 – Mt. Lemmon Survey MPS 484917
2013 10 30.23580 00 11 19.55 +01 26 24.5 20.8 V G96 – Mt. Lemmon Survey MPS 484917
2013 10 30.24457 00 11 19.35 +01 26 22.8 20.5 V G96 – Mt. Lemmon Survey MPS 484917
2016 02 05.49288 11 35 40.461 +00 17 03.56 22.0 w F51 – Pan-STARRS 1, Haleakala MPS 681654
2016 02 05.50469 11 35 40.129 +00 17 05.32 22.2 w F51 – Pan-STARRS 1, Haleakala MPS 681654
2016 02 05.51652 11 35 39.783 +00 17 07.19 22.4 w F51 – Pan-STARRS 1, Haleakala MPS 681654
2016 02 05.52841 11 35 39.467 +00 17 09.66 22.3 w F51 – Pan-STARRS 1, Haleakala MPS 681654
2016 03 11.25446 11 10 24.00 +03 09 03.3 21.9 V G96 – Mt. Lemmon Survey MPS 691964
2016 03 11.25855 11 10 23.68 +03 09 05.6 22.8 V G96 – Mt. Lemmon Survey MPS 691964
2016 03 11.26264 11 10 23.52 +03 09 06.2 21.5 V G96 – Mt. Lemmon Survey MPS 691964
2016 03 11.26674 11 10 23.24 +03 09 08.4 21.7 V G96 – Mt. Lemmon Survey MPS 691964
2016 03 15.25742 11 06 50.93 +03 34 26.7 22.4 V G96 – Mt. Lemmon Survey MPS 695210
2016 03 15.26136 11 06 50.75 +03 34 28.1 21.6 V G96 – Mt. Lemmon Survey MPS 695210
2016 03 15.26531 11 06 50.55 +03 34 30.1 21.6 V G96 – Mt. Lemmon Survey MPS 695210
2016 03 15.26926 11 06 50.31 +03 34 31.4 21.6 V G96 – Mt. Lemmon Survey MPS 695210
2017 06 27.43046 22 56 32.25 -03 08 13.0 21.3 V G96 – Mt. Lemmon Survey MPS 803306
2017 06 27.43472 22 56 32.52 -03 08 12.1 21.1 V G96 – Mt. Lemmon Survey MPS 803306
2017 06 27.44253 22 56 32.88 -03 08 09.4 20.9 V G96 – Mt. Lemmon Survey MPS 803306
